Soldotna, AK

12:03 PM AKST on December 06, 2019 (GMT -0900)
Soldotna

Weather History for PASX - October, 2019

Change the Weather History Date:

Saturday, October 5, 2019

  Actual Average Record
Temperature  
Mean Temperature 44 °F -  
Max Temperature 48 °F 46 °F 56 °F (1964)
Min Temperature 39 °F 33 °F 16 °F (1958)
Degree Days  
Heating Degree Days 22    
Moisture  
Dew Point 34 °F    
Average Humidity 68    
Maximum Humidity 83    
Minimum Humidity 41    
Precipitation  
Precipitation 0.00 in - - ()
Sea Level Pressure  
Sea Level Pressure 29.88 in    
Wind  
Wind Speed 9 mph (SSW)    
Max Wind Speed 14 mph    
Max Gust Speed 21 mph    
Visibility 10 miles    
Events      
Averages and records for this station are not official NWS values.
T = Trace of Precipitation, MM = Missing Value Source: NWS Daily Summary

Daily Weather History Graph

Daily Weather History Graph

Search for Another Location

Airport or City:

Astronomy

Oct. 05, 2019 Rise Set
Actual Time 8:19 AM AKDT 7:23 PM AKDT
Civil Twilight 7:37 AM AKDT 8:05 PM AKDT
Nautical Twilight 6:48 AM AKDT 8:54 PM AKDT
Astronomical Twilight 5:57 AM AKDT 9:45 PM AKDT
Moon 5:31 PM AKDT (10/5) 11:20 PM AKDT (10/5)
Length of Visible Light 12h 28m
Length of Day
11h 04m
First Quarter, 51% of the Moon is Illuminated
Oct 5
First Quarter
Oct 13
Full
Oct 21
Last Quarter
Oct 27
New
Nov 4
First Quarter

Hourly Weather History & Observations

Time (AKDT) Temp. Windchill Dew Point Humidity Pressure Visibility Wind Dir Wind Speed Gust Speed Precip Events Conditions
12:56 AM 45.0 °F 39.7 °F 36.0 °F 71% 29.87 in 10.0 mi South 10.4 mph - N/A   Clear
1:56 AM 45.0 °F 40.6 °F 35.1 °F 68% 29.88 in 10.0 mi South 8.1 mph - N/A   Clear
2:56 AM 44.1 °F 38.6 °F 33.1 °F 65% 29.90 in 10.0 mi South 10.4 mph - N/A   Clear
3:56 AM 44.1 °F 40.1 °F 35.1 °F 71% 29.92 in 10.0 mi SSW 6.9 mph 16.1 mph N/A   Clear
4:56 AM 43.0 °F 38.8 °F 37.0 °F 80% 29.92 in 10.0 mi South 6.9 mph - N/A   Clear
5:56 AM 42.1 °F 38.4 °F 35.1 °F 76% 29.92 in 10.0 mi South 5.8 mph - N/A   Clear
6:56 AM 42.1 °F 37.1 °F 36.0 °F 79% 29.91 in 10.0 mi South 8.1 mph - N/A   Scattered Clouds
7:56 AM 44.1 °F 42.5 °F 37.0 °F 76% 29.91 in 10.0 mi South 3.5 mph - N/A   Clear
8:56 AM 44.1 °F 40.1 °F 36.0 °F 73% 29.91 in 10.0 mi South 6.9 mph - N/A   Clear
9:56 AM 45.0 °F 41.2 °F 34.0 °F 65% 29.92 in 10.0 mi South 6.9 mph - N/A   Clear
10:56 AM 45.0 °F 41.2 °F 30.9 °F 58% 29.93 in 10.0 mi South 6.9 mph - N/A   Clear
11:56 AM 46.9 °F - 28.0 °F 48% 29.93 in 10.0 mi SW 9.2 mph - N/A   Clear
12:56 PM 48.0 °F - 25.0 °F 41% 29.92 in 10.0 mi WSW 10.4 mph - N/A   Clear
1:56 PM 48.0 °F - 27.0 °F 44% 29.91 in 10.0 mi SW 10.4 mph - N/A   Clear
2:56 PM 46.9 °F - 33.1 °F 59% 29.89 in 10.0 mi Variable 6.9 mph 17.3 mph N/A   Clear
3:56 PM 46.0 °F 41.9 °F 34.0 °F 63% 29.88 in 10.0 mi South 8.1 mph 16.1 mph N/A   Clear
4:56 PM 46.0 °F 39.9 °F 34.0 °F 63% 29.86 in 10.0 mi South 13.8 mph 20.7 mph N/A   Scattered Clouds
5:56 PM 46.0 °F 41.0 °F 36.0 °F 68% 29.85 in 10.0 mi SW 10.4 mph - N/A   Clear
6:56 PM 44.1 °F 38.6 °F 37.0 °F 76% 29.84 in 10.0 mi SW 10.4 mph - N/A   Clear
7:56 PM 42.1 °F 37.7 °F 35.1 °F 76% 29.83 in 10.0 mi South 6.9 mph - N/A   Clear
8:56 PM 41.0 °F 34.7 °F 35.1 °F 79% 29.82 in 10.0 mi South 10.4 mph - N/A   Clear
9:56 PM 39.9 °F 35.8 °F 35.1 °F 83% 29.83 in 10.0 mi South 5.8 mph - N/A   Clear
10:56 PM 39.9 °F 34.5 °F 34.0 °F 79% 29.82 in 10.0 mi South 8.1 mph - N/A   Clear
11:56 PM 39.0 °F 32.8 °F 33.1 °F 79% 29.82 in 10.0 mi South 9.2 mph - N/A   Clear